Location: Albuquerque Trailhead
(34.7934°N, 106.3736°W)
Time: 00:42:46
(UTC+00:00)

COSMOS 2428 - Pass Details

Date: 20 June 2021
Orbit: 845 x 858 km, 70.9° (Epoch: 01 August)

Event Time Altitude Azimuth Distance (km) Brightness Sun altitude
Exits shadow 04:10:07 30° 155° (SSE) 1,488 3.4 -18.2°
Maximum altitude 04:12:22 44° 105° (ESE) 1,171 3.0 -18.5°
Drops below altitude 10° 04:17:46 10° 35° (NE) 2,495 5.3 -19.3°
Sets 04:20:19 0° 29° (NNE) 3,435 6.1 -19.6°
